Satellite: LO-19
Catalog number: 20442
Epoch time:      05268.63258910
Element set:     496
Inclination:      098.2168 deg
RA of node:       297.4286 deg
Eccentricity:    0.0011037
Arg of perigee:   264.8839 deg
Mean anomaly:     095.1079 deg
Mean motion:   14.31938014 rev/day
Decay rate:        2.4e-07 rev/day^2
Epoch rev:           81859
Checksum:              333

Satellite: UO-22
Catalog number: 21575
Epoch time:      05267.80955024
Element set:    0514
Inclination:      098.2561 deg
RA of node:       229.4460 deg
Eccentricity:    0.0008060
Arg of perigee:   143.7556 deg
Mean anomaly:     216.4183 deg
Mean motion:   14.39508758 rev/day
Decay rate:        4.3e-07 rev/day^2
Epoch rev:           74483
Checksum:              309

Satellite: KO-23
Catalog number: 22077
Epoch time:      05267.80707494
Element set:     587
Inclination:      066.0883 deg
RA of node:       297.8259 deg
Eccentricity:    0.0013391
Arg of perigee:   233.0609 deg
Mean anomaly:     126.9190 deg
Mean motion:   12.86432893 rev/day
Decay rate:       -3.7e-07 rev/day^2
Epoch rev:           61640
Checksum:              328

Satellite: AO-27
Catalog number: 22825
Epoch time:      05268.66388721
Element set:     225
Inclination:      098.2596 deg
RA of node:       258.8829 deg
Eccentricity:    0.0007817
Arg of perigee:   331.0157 deg
Mean anomaly:     029.0595 deg
Mean motion:   14.29145111 rev/day
Decay rate:       -4.8e-07 rev/day^2
Epoch rev:           62557
Checksum:              331

Satellite: IO-26
Catalog number: 22826
Epoch time:      05268.53857813
Element set:     905
Inclination:      098.2545 deg
RA of node:       260.0353 deg
Eccentricity:    0.0008921
Arg of perigee:   330.7208 deg
Mean anomaly:     029.3477 deg
Mean motion:   14.29387210 rev/day
Decay rate:        2.5e-07 rev/day^2
Epoch rev:           62562
Checksum:              306

Satellite: KO-25
Catalog number: 22828
Epoch time:      05267.53420982
Element set:    0154
Inclination:      098.2496 deg
RA of node:       259.2658 deg
Eccentricity:    0.0009833
Arg of perigee:   310.0930 deg
Mean anomaly:     049.9395 deg
Mean motion:   14.29698334 rev/day
Decay rate:        2.9e-07 rev/day^2
Epoch rev:           59371
Checksum:              341

Satellite: PO-28
Catalog number: 22829
Epoch time:      05267.54001016
Element set:    0194
Inclination:      098.2456 deg
RA of node:       260.2835 deg
Eccentricity:    0.0009173
Arg of perigee:   307.7092 deg
Mean anomaly:     052.3228 deg
Mean motion:   14.30066238 rev/day
Decay rate:       -6.3e-07 rev/day^2
Epoch rev:           62567
Checksum:              294

Satellite: TO-31
Catalog number: 25396
Epoch time:      05267.71649698
Element set:    0358
Inclination:      098.5190 deg
RA of node:       331.9351 deg
Eccentricity:    0.0001917
Arg of perigee:   233.6728 deg
Mean anomaly:     126.4272 deg
Mean motion:   14.23683471 rev/day
Decay rate:       1.18e-06 rev/day^2
Epoch rev:           37457
Checksum:              330

Satellite: GO-32
Catalog number: 25397
Epoch time:      05267.70179889
Element set:    0846
Inclination:      098.5095 deg
RA of node:       329.2374 deg
Eccentricity:    0.0000488
Arg of perigee:   214.4046 deg
Mean anomaly:     145.7086 deg
Mean motion:   14.23088493 rev/day
Decay rate:        1.6e-07 rev/day^2
Epoch rev:           37448
Checksum:              342

Satellite: UO-36
Catalog number: 25693
Epoch time:      05268.78196700
Element set:     605
Inclination:      064.5592 deg
RA of node:       334.7781 deg
Eccentricity:    0.0013563
Arg of perigee:   202.8848 deg
Mean anomaly:     157.1653 deg
Mean motion:   14.78541037 rev/day
Decay rate:        1.9e-07 rev/day^2
Epoch rev:           34669
Checksum:              335

Satellite: SO-41
Catalog number: 26545
Epoch time:      05268.78303593
Element set:     183
Inclination:      064.5596 deg
RA of node:       348.1913 deg
Eccentricity:    0.0054803
Arg of perigee:   290.2140 deg
Mean anomaly:     069.3096 deg
Mean motion:   14.80165494 rev/day
Decay rate:       1.09e-06 rev/day^2
Epoch rev:           26981
Checksum:              321

Satellite: MO-46
Catalog number: 26548
Epoch time:      05267.73791420
Element set:     293
Inclination:      064.5591 deg
RA of node:       332.6857 deg
Eccentricity:    0.0050474
Arg of perigee:   284.5359 deg
Mean anomaly:     075.0173 deg
Mean motion:   14.82815369 rev/day
Decay rate:       3.64e-06 rev/day^2
Epoch rev:           27004
Checksum:              328

Satellite: SO-42
Catalog number: 26549
Epoch time:      05267.69983068
Element set:    0251
Inclination:      064.5585 deg
RA of node:       000.6891 deg
Eccentricity:    0.0057235
Arg of perigee:   293.8088 deg
Mean anomaly:     065.7030 deg
Mean motion:   14.79040497 rev/day
Decay rate:       1.96e-06 rev/day^2
Epoch rev:           26947
Checksum:              346

Satellite: NO-44
Catalog number: 26931
Epoch time:      05267.74703640
Element set:     129
Inclination:      067.0543 deg
RA of node:       331.3717 deg
Eccentricity:    0.0005444
Arg of perigee:   269.9739 deg
Mean anomaly:     090.0744 deg
Mean motion:   14.29403772 rev/day
Decay rate:        8.8e-07 rev/day^2
Epoch rev:           20799
Checksum:              321

